Santa Rosa, CA

11:29 PM PDT on April 28, 2017 (GMT -0700)
Sonoma County

Weather History for KSTS - March, 2014

Change the Weather History Date:

Monday, March 17, 2014

  Actual Average Record
Temperature  
Mean Temperature 58 °F 53 °F  
Max Temperature 71 °F 64 °F 78 °F (2016)
Min Temperature 45 °F 42 °F 35 °F (2011)
Degree Days  
Heating Degree Days 7    
Month to date heating degree days 114  
Since 1 July heating degree days 2051  
Cooling Degree Days 0    
Month to date cooling degree days 0  
Year to date cooling degree days 0  
Growing Degree Days 8 (Base 50)    
Moisture  
Dew Point 42 °F    
Average Humidity 63    
Maximum Humidity 93    
Minimum Humidity 33    
Precipitation  
Precipitation 0.00 in 0.14 in 0.09 in (2002)
Month to date precipitation 0.77 3.20  
Year to date precipitation 10.21 16.65  
Since 1 July precipitation 12.23  
Sea Level Pressure  
Sea Level Pressure 30.07 in    
Wind  
Wind Speed 7 mph (NNW)    
Max Wind Speed 18 mph    
Max Gust Speed 22 mph    
Visibility 10 miles    
Events      
T = Trace of Precipitation, MM = Missing Value Source: NWS Daily Summary

Daily Weather History Graph

Daily Weather History Graph

Search for Another Location

Airport or City:

Trip Planner

Search our weather history database for the weather conditions in past years. The results will help you decide how hot, cold, wet, or windy it might be!

Date:

Astronomy

Mar. 17, 2014 Rise Set
Actual Time 7:19 AM PDT 7:20 PM PDT
Civil Twilight 6:52 AM PDT 7:46 PM PDT
Nautical Twilight 6:22 AM PDT 8:17 PM PDT
Astronomical Twilight 5:50 AM PDT 8:48 PM PDT
Moon 8:41 PM PDT (3/17) 7:38 AM PDT (3/17)
Length of Visible Light 12h 54m
Length of Day
12h 01m
Full, 99% of the Moon is Illuminated
Mar 17
Full
Mar 23
Last Quarter
Mar 30
New
Apr 7
First Quarter
Apr 15
Full

Hourly Weather History & Observations

Time (PDT) Temp. Windchill Dew Point Humidity Pressure Visibility Wind Dir Wind Speed Gust Speed Precip Events Conditions
12:53 AM 51.1 °F - 41.0 °F 68% 30.18 in 10.0 mi WNW 8.1 mph - N/A   Clear
1:53 AM 48.0 °F - 41.0 °F 77% 30.18 in 10.0 mi Calm Calm - N/A   Clear
2:53 AM 48.9 °F - 41.0 °F 74% 30.17 in 10.0 mi WSW 4.6 mph - N/A   Clear
3:53 AM 46.0 °F 44.8 °F 41.0 °F 83% 30.14 in 10.0 mi SSE 3.5 mph - N/A   Partly Cloudy
4:21 AM 48.0 °F - 42.1 °F 80% 30.14 in 10.0 mi ESE 5.8 mph - N/A   Mostly Cloudy
4:53 AM 48.0 °F - 43.0 °F 83% 30.13 in 10.0 mi East 6.9 mph - N/A   Overcast
5:53 AM 50.0 °F - 43.0 °F 77% 30.12 in 10.0 mi ESE 4.6 mph - N/A   Overcast
6:02 AM 50.0 °F - 43.0 °F 77% 30.14 in 10.0 mi SE 4.6 mph - N/A   Overcast
6:53 AM 46.0 °F 43.9 °F 43.0 °F 89% 30.12 in 10.0 mi West 4.6 mph - N/A   Clear
7:53 AM 46.9 °F - 44.1 °F 90% 30.12 in 10.0 mi Variable 3.5 mph - N/A   Scattered Clouds
8:53 AM 53.1 °F - 45.0 °F 74% 30.12 in 10.0 mi NW 8.1 mph - N/A   Scattered Clouds
9:53 AM 55.0 °F - 42.1 °F 62% 30.13 in 10.0 mi NNW 16.1 mph - N/A   Scattered Clouds
10:53 AM 59.0 °F - 41.0 °F 51% 30.12 in 10.0 mi NNW 8.1 mph - N/A   Scattered Clouds
11:53 AM 62.1 °F - 42.1 °F 48% 30.10 in 10.0 mi Variable 5.8 mph - N/A   Partly Cloudy
12:53 PM 64.0 °F - 42.1 °F 45% 30.08 in 10.0 mi Variable 5.8 mph - N/A   Partly Cloudy
1:53 PM 66.0 °F - 41.0 °F 40% 30.05 in 10.0 mi WNW 10.4 mph - N/A   Clear
2:53 PM 68.0 °F - 41.0 °F 37% 30.02 in 10.0 mi NW 8.1 mph - N/A   Clear
3:53 PM 70.0 °F - 41.0 °F 35% 29.99 in 10.0 mi NNW 9.2 mph - N/A   Clear
4:53 PM 70.0 °F - 39.9 °F 33% 29.97 in 10.0 mi NW 6.9 mph - N/A   Clear
5:53 PM 70.0 °F - 41.0 °F 35% 29.95 in 10.0 mi NNW 5.8 mph - N/A   Scattered Clouds
6:53 PM 66.0 °F - 44.1 °F 45% 29.95 in 10.0 mi North 4.6 mph - N/A   Scattered Clouds
7:53 PM 61.0 °F - 43.0 °F 52% 29.96 in 10.0 mi North 9.2 mph - N/A   Clear
8:53 PM 57.9 °F - 42.1 °F 56% 29.97 in 10.0 mi North 6.9 mph - N/A   Clear
9:53 PM 55.0 °F - 41.0 °F 59% 29.98 in 10.0 mi North 9.2 mph - N/A   Clear
10:53 PM 53.1 °F - 42.1 °F 66% 29.98 in 10.0 mi North 4.6 mph - N/A   Clear
11:53 PM 51.1 °F - 41.0 °F 68% 29.97 in 10.0 mi North 10.4 mph - N/A   Clear